THOR ABLESTAR DEB

Satellite information

Favourite Embed

Satellite Type and Status

DEBRISIN ORBIT

Key statistics

Satellite THOR ABLESTAR DEB at a glance.

Uptime

23325

Days in orbit

Revolutions

≈ 14.1

Per day

Orbit

LEO

Low Earth Orbit

Inclination

67.0

Latest

Satellite identification and parameters

Extended collection of information and parameters for THOR ABLESTAR DEB.

Object identification

Identified? True

Debris? True

Object name: THOR ABLESTAR DEB

International designator: 1961-015BT

Object number (NORAD): 235

Object ID (CCSDS): 235

Country: UNITED STATES OF AMERICA (US)

Current information (Y/N): Y

RCS size: SMALL

Orbital parameters

Period: 102.062 minutes

Inclination: 66.9547 deg

SMA: 7234.39 km

Apoapsis: 977.954 km

Periapsis: 734.556 km

RAAN: 209.1542 deg

Eccentricy: 0.0168223

Argument of periapsis: 279.9564 deg

Mean anomaly: 78.2576 deg

Mean motion: 14.10911934 rev/day

Mean motion (dot): 0.00000594 rev/day2

B* drag term: 0.00032869 1/REarth

Two-line elements (TLE)

Creation date: May 8, 2025, 3:01 a.m.

Reference frame: TEME

Reference center: EARTH

Epoch: May 7, 2025, 2:14 p.m. UTC

TLE line 0: 0 THOR ABLESTAR DEB

TLE line 1: 1 00235U 61015BT 25127.59351456 .00000594 00000-0 32869-3 0 9997

TLE line 2: 2 00235 66.9547 209.1542 0168223 279.9564 78.2576 14.10911934264107

Live tracking on map

Real-time ground track for satellite THOR ABLESTAR DEB.

In-orbit conjunctions

A list of the most updated potential collisions computed for object THOR ABLESTAR DEB.

Target Orbit TCA Probability of collision Miss distance Type
NOAA 16 DEB SSO 2024-11-14 08:24:38 0.0001524776 220.0 (m) DEBRIS
COSMOS 2016 LEO 2024-08-06 07:54:37 0.003628954 255.0 (m) PAYLOAD

Associated space launch

THOR ABLESTAR DEB was lifted into orbit during the mission ‘Thor DM-21 Ablestar | Transit 4A & Injun-1 & Solrad 3’, on board a Thor DM-21 Ablestar space rocket.

The launch took place on June 29, 1961, 4:23 a.m. from Space Launch Complex 17B.

For more information about the launch, click the button.

Launch to space Thor DM-21 Ablestar | Transit 4A & Injun-1 & Solrad 3
Thor DM-21 Ablestar | Transit 4A & Injun-1 & Solrad 3

Agency: N/A

Status: Launch Successful

Launch date: June 29, 1961, 4:23 a.m. UTC

Rocket: Thor DM-21 Ablestar

Launch pad: Space Launch Complex 17B

Location: Cape Canaveral SFS, FL, USA

...

Latest news about this satellite

There are no fresh news available about this satellite. Check back as we update our databases every day.


Newsletter sign-up

Weekly statistics, charts and insights to help you stay on top of the space industry.